Location: Kudlacze
(49.7800°N, 20.0200°E)
Time: 06:29:23
(UTC+00:00)

Envisat - Pass Details

Date: 04 October 2021
Orbit: 764 x 766 km, 98.2° (Epoch: 23 October)

Event Time Altitude Azimuth Distance (km) Brightness Sun altitude
Rises 03:20:34 0° 19° (NNE) 3,244 6.7 -14.3°
Reaches altitude 10° 03:23:01 10° 27° (NNE) 2,313 6.0 -13.9°
Maximum altitude 03:27:50 41° 97° (E) 1,098 4.4 -13.2°
Drops below altitude 10° 03:32:36 10° 168° (SSE) 2,295 5.5 -12.4°
Sets 03:35:01 0° 175° (S) 3,217 6.2 -12.0°
